Location: Dąbrowa Miętka
(51.3714°N, 18.6370°E)
Time: 01:19:42
(UTC+01:00)

ISS - Pass Details

Date: 31 January 2019
Orbit: 403 x 411 km, 51.6° (Epoch: 19 February)

Event Time Altitude Azimuth Distance (km) Brightness Sun altitude
Rises 18:11:02 0° 269° (W) 2,335 1.8 -15.3°
Reaches altitude 10° 18:13:07 10° 270° (W) 1,476 0.4 -15.6°
Maximum altitude 18:16:25 83° 358° (N) 419 -3.9 -16.1°
Enters shadow 18:17:23 44° 82° (E) 585 -3.5 -16.3°
